Zurück zum Katalog

SHUTIANYUXING-02 SHIYAN XING

AktivWissenschaftSSO
NORAD 65940·PAYLOAD·🇨🇳 China
Dieser Satellitenname wurde noch nicht durch offizielle Quellen bestätigt.

Gestartet Oct 11, 2025 von Yellow Sea Launch Area

Loading…

Nächste Überflüge (nächste 24 Stunden)

TLE

AktuellSource: Space-Track

Epoche: Sep 14, 2026, 11:25 UTC

1 65940U 25226C   26257.47636109  .00005704  00000-0  29124-3 0  9996
2 65940  97.6296 338.0889 0012968 184.2485 175.8640 15.17040108 51219

Verfolge SHUTIANYUXING-02 SHIYAN XING in Echtzeit mit AllMySat

Download on the App Store